GLD1028 SBSP-SBSV

Flight info

Callsign GLD1028
Flight time 1h 54m
Altitude 37000
Route BAIA3B VUMEV UZ14 ZUMBA ATEX1A
Aircraft B738/M-SDFGIRY/S

Departure

Time 2026-05-07 15:21
Airport Congonhas–Deputado Freitas Nobre Airport (SBSP)

Arrival

Time 2026-05-07 17:16
Airport Deputado Luiz Eduardo Magalhães International Airport (SBSV)
Time Latitude Longitude Altitude Speed Heading
2026-05-07 15:06 -23.62657 -46.65863 2627 ft 0 kts 237°
2026-05-07 15:11 -23.62655 -46.65859 2600 ft 1 kts 237°
2026-05-07 15:11 -23.62650 -46.65852 2600 ft 1 kts 237°
2026-05-07 15:12 -23.62646 -46.65844 2600 ft 1 kts 237°
2026-05-07 15:12 -23.62641 -46.65837 2600 ft 1 kts 240°
2026-05-07 15:12 -23.62638 -46.65830 2600 ft 1 kts 272°
2026-05-07 15:12 -23.62638 -46.65825 2600 ft 0 kts 302°
2026-05-07 15:13 -23.62638 -46.65823 2600 ft 0 kts 329°
2026-05-07 15:15 -23.62637 -46.65823 2600 ft 0 kts 329°
2026-05-07 15:16 -23.62636 -46.65824 2600 ft 1 kts 335°
2026-05-07 15:16 -23.62602 -46.65820 2600 ft 8 kts
2026-05-07 15:16 -23.62551 -46.65835 2601 ft 8 kts 333°
2026-05-07 15:16 -23.62507 -46.65864 2600 ft 7 kts 324°
2026-05-07 15:17 -23.62466 -46.65895 2600 ft 7 kts 327°
2026-05-07 15:17 -23.62425 -46.65923 2600 ft 7 kts 329°
2026-05-07 15:17 -23.62384 -46.65950 2599 ft 7 kts 328°
2026-05-07 15:17 -23.62345 -46.65977 2599 ft 7 kts 328°
2026-05-07 15:18 -23.62306 -46.66004 2599 ft 7 kts 326°
2026-05-07 15:18 -23.62269 -46.66031 2599 ft 6 kts 327°
2026-05-07 15:18 -23.62231 -46.66054 2599 ft 6 kts 334°
2026-05-07 15:18 -23.62192 -46.66075 2594 ft 6 kts 332°
2026-05-07 15:19 -23.62156 -46.66100 2592 ft 6 kts 327°
2026-05-07 15:19 -23.62129 -46.66119 2590 ft 0 kts 327°
2026-05-07 15:19 -23.62126 -46.66121 2591 ft 3 kts 327°
2026-05-07 15:20 -23.62077 -46.66137 2595 ft 10 kts
2026-05-07 15:20 -23.62038 -46.66088 2595 ft 6 kts 98°
2026-05-07 15:20 -23.62065 -46.66061 2588 ft 4 kts 155°
2026-05-07 15:20 -23.62075 -46.66054 2595 ft 7 kts 147°
2026-05-07 15:21 -23.62337 -46.65874 2600 ft 83 kts 148°
2026-05-07 15:21 -23.63026 -46.65396 2609 ft 150 kts 147°
2026-05-07 15:21 -23.64048 -46.64693 2906 ft 180 kts 143°
2026-05-07 15:21 -23.65116 -46.63935 3645 ft 191 kts 141°
2026-05-07 15:22 -23.65919 -46.62829 4338 ft 183 kts 107°
2026-05-07 15:22 -23.66477 -46.61466 4679 ft 210 kts 110°
2026-05-07 15:22 -23.67129 -46.59958 4870 ft 231 kts 111°
2026-05-07 15:22 -23.67863 -46.58314 5020 ft 252 kts 112°
2026-05-07 15:23 -23.68677 -46.56530 5187 ft 271 kts 113°
2026-05-07 15:23 -23.69542 -46.54680 5765 ft 276 kts 114°
2026-05-07 15:23 -23.70421 -46.52812 6503 ft 277 kts 113°
2026-05-07 15:23 -23.71297 -46.50947 7220 ft 277 kts 113°
2026-05-07 15:24 -23.71946 -46.48989 7861 ft 273 kts 89°
2026-05-07 15:24 -23.71807 -46.46949 8494 ft 270 kts 78°
2026-05-07 15:24 -23.71521 -46.44921 9209 ft 271 kts 77°
2026-05-07 15:24 -23.71218 -46.42883 9862 ft 273 kts 77°
2026-05-07 15:25 -23.70910 -46.40819 10377 ft 281 kts 77°
2026-05-07 15:25 -23.70586 -46.38636 10522 ft 302 kts 78°
2026-05-07 15:25 -23.70244 -46.36298 10652 ft 322 kts 78°
2026-05-07 15:25 -23.69886 -46.33827 10837 ft 337 kts 78°
2026-05-07 15:26 -23.69521 -46.31266 11229 ft 345 kts 78°
2026-05-07 15:26 -23.69153 -46.28676 11800 ft 346 kts 79°
2026-05-07 15:26 -23.68782 -46.26069 12355 ft 348 kts 79°
2026-05-07 15:26 -23.68409 -46.23454 12980 ft 348 kts 79°
2026-05-07 15:27 -23.68034 -46.20826 13503 ft 353 kts 80°
2026-05-07 15:27 -23.67653 -46.18173 14099 ft 353 kts 80°
2026-05-07 15:27 -23.67211 -46.15584 14724 ft 352 kts 72°
2026-05-07 15:27 -23.66070 -46.13231 15158 ft 356 kts 51°
2026-05-07 15:28 -23.64263 -46.11364 15627 ft 361 kts 33°
2026-05-07 15:28 -23.62046 -46.10041 16140 ft 365 kts 27°
2026-05-07 15:28 -23.59752 -46.08816 16562 ft 371 kts 27°
2026-05-07 15:28 -23.57428 -46.07566 17149 ft 371 kts 27°
2026-05-07 15:29 -23.55105 -46.06293 17642 ft 376 kts 27°
2026-05-07 15:29 -23.52757 -46.04992 18093 ft 380 kts 27°
2026-05-07 15:29 -23.50384 -46.03673 18582 ft 383 kts 27°
2026-05-07 15:29 -23.47996 -46.02345 18960 ft 388 kts 27°
2026-05-07 15:30 -23.45571 -46.01000 19321 ft 393 kts 26°
2026-05-07 15:30 -23.43065 -45.99780 19692 ft 397 kts 15°
2026-05-07 15:30 -23.40321 -45.99424 20047 ft 400 kts
2026-05-07 15:30 -23.37530 -45.99372 20478 ft 403 kts
2026-05-07 15:31 -23.34716 -45.99318 20904 ft 405 kts 359°
2026-05-07 15:31 -23.31878 -45.99242 21191 ft 412 kts
2026-05-07 15:31 -23.29000 -45.99147 21595 ft 414 kts
2026-05-07 15:31 -23.26112 -45.99044 22005 ft 416 kts
2026-05-07 15:32 -23.23246 -45.98941 22357 ft 420 kts
2026-05-07 15:32 -23.20316 -45.98835 22779 ft 422 kts
2026-05-07 15:32 -23.17375 -45.98729 23183 ft 424 kts 360°
2026-05-07 15:32 -23.14414 -45.98622 23550 ft 427 kts 360°
2026-05-07 15:33 -23.11430 -45.98515 23861 ft 430 kts 360°
2026-05-07 15:33 -23.08425 -45.98407 24128 ft 434 kts 360°
2026-05-07 15:33 -23.05389 -45.98299 24394 ft 438 kts 360°
2026-05-07 15:33 -23.02332 -45.98189 24717 ft 440 kts 360°
2026-05-07 15:34 -22.99264 -45.98079 25027 ft 442 kts 359°
2026-05-07 15:34 -22.96179 -45.97968 25320 ft 445 kts 359°
2026-05-07 15:34 -22.93066 -45.97857 25599 ft 448 kts 359°
2026-05-07 15:34 -22.89950 -45.97620 25850 ft 453 kts
2026-05-07 15:35 -22.86958 -45.96484 26100 ft 461 kts 28°
2026-05-07 15:35 -22.84260 -45.94578 26315 ft 465 kts 34°
2026-05-07 15:35 -22.81616 -45.92555 26656 ft 466 kts 34°
2026-05-07 15:35 -22.78972 -45.90502 26912 ft 469 kts 35°
2026-05-07 15:36 -22.76314 -45.88442 27259 ft 470 kts 35°
2026-05-07 15:36 -22.73639 -45.86389 27470 ft 474 kts 34°
2026-05-07 15:36 -22.70933 -45.84331 27811 ft 475 kts 34°
2026-05-07 15:36 -22.68205 -45.82271 28001 ft 479 kts 34°
2026-05-07 15:37 -22.65461 -45.80208 28314 ft 481 kts 34°
2026-05-07 15:37 -22.62705 -45.78140 28521 ft 484 kts 34°
2026-05-07 15:37 -22.59966 -45.76087 28738 ft 487 kts 34°
2026-05-07 15:37 -22.57168 -45.73990 28910 ft 491 kts 34°
2026-05-07 15:38 -22.54356 -45.71884 29138 ft 493 kts 34°
2026-05-07 15:38 -22.51533 -45.69769 29373 ft 495 kts 34°
2026-05-07 15:38 -22.48700 -45.67646 29607 ft 496 kts 34°
2026-05-07 15:38 -22.45858 -45.65519 29818 ft 499 kts 34°
2026-05-07 15:39 -22.42998 -45.63378 30016 ft 501 kts 34°
2026-05-07 15:39 -22.40119 -45.61225 30208 ft 503 kts 34°
2026-05-07 15:39 -22.37242 -45.59074 30395 ft 505 kts 34°
2026-05-07 15:39 -22.34348 -45.56912 30585 ft 506 kts 34°
2026-05-07 15:40 -22.31445 -45.54744 30826 ft 506 kts 34°
2026-05-07 15:40 -22.28550 -45.52584 31110 ft 505 kts 34°
2026-05-07 15:40 -22.25656 -45.50425 31373 ft 505 kts 34°
2026-05-07 15:40 -22.22765 -45.48270 31614 ft 505 kts 35°
2026-05-07 15:41 -22.19867 -45.46110 31899 ft 505 kts 35°
2026-05-07 15:41 -22.16988 -45.43965 32159 ft 504 kts 35°
2026-05-07 15:41 -22.14091 -45.41808 32382 ft 505 kts 34°
2026-05-07 15:41 -22.11199 -45.39655 32622 ft 505 kts 34°
2026-05-07 15:42 -22.08307 -45.37503 32893 ft 505 kts 35°
2026-05-07 15:42 -22.05415 -45.35353 33151 ft 505 kts 35°
2026-05-07 15:42 -22.02550 -45.33164 33366 ft 506 kts 37°
2026-05-07 15:42 -21.99788 -45.30895 33588 ft 506 kts 39°
2026-05-07 15:43 -21.97031 -45.28550 33840 ft 505 kts 39°
2026-05-07 15:43 -21.94282 -45.26182 34096 ft 504 kts 39°
2026-05-07 15:43 -21.91540 -45.23823 34282 ft 505 kts 39°
2026-05-07 15:43 -21.88783 -45.21467 34444 ft 506 kts 39°
2026-05-07 15:44 -21.86013 -45.19114 34638 ft 506 kts 39°
2026-05-07 15:44 -21.83246 -45.16776 34830 ft 506 kts 39°
2026-05-07 15:44 -21.81412 -45.15231 34944 ft 506 kts 39°
2026-05-07 15:44 -21.78634 -45.12893 35108 ft 507 kts 39°
2026-05-07 15:45 -21.75856 -45.10557 35287 ft 507 kts 39°
2026-05-07 15:45 -21.73083 -45.08226 35503 ft 506 kts 39°
2026-05-07 15:45 -21.69375 -45.05109 35731 ft 506 kts 39°
2026-05-07 15:45 -21.66596 -45.02774 35868 ft 507 kts 39°
2026-05-07 15:46 -21.61971 -44.98889 36136 ft 507 kts 39°
2026-05-07 15:46 -21.59192 -44.96557 36342 ft 506 kts 39°
2026-05-07 15:46 -21.56426 -44.94236 36569 ft 504 kts 39°
2026-05-07 15:47 -21.53650 -44.91909 36752 ft 504 kts 39°
2026-05-07 15:47 -21.50886 -44.89592 36887 ft 504 kts 39°
2026-05-07 15:47 -21.48161 -44.87309 36999 ft 505 kts 39°
2026-05-07 15:48 -21.42619 -44.82669 37079 ft 506 kts 39°
2026-05-07 15:48 -21.37069 -44.78027 37097 ft 506 kts 39°
2026-05-07 15:49 -21.31508 -44.73388 37098 ft 506 kts 39°
2026-05-07 15:49 -21.25953 -44.68760 37086 ft 505 kts 39°
2026-05-07 15:50 -21.20405 -44.64141 37104 ft 504 kts 39°
2026-05-07 15:50 -21.14870 -44.59528 37085 ft 504 kts 39°
2026-05-07 15:51 -21.09338 -44.54919 37094 ft 503 kts 39°
2026-05-07 15:51 -21.03807 -44.50314 37090 ft 503 kts 39°
2026-05-07 15:52 -20.98316 -44.45748 37106 ft 503 kts 39°
2026-05-07 15:52 -20.92793 -44.41170 37114 ft 503 kts 39°
2026-05-07 15:53 -20.87253 -44.36588 37101 ft 503 kts 39°
2026-05-07 15:53 -20.81713 -44.32008 37095 ft 503 kts 39°
2026-05-07 15:54 -20.76174 -44.27430 37108 ft 504 kts 39°
2026-05-07 15:54 -20.70622 -44.22846 37097 ft 504 kts 39°
2026-05-07 15:55 -20.65067 -44.18264 37113 ft 505 kts 39°
2026-05-07 15:55 -20.59532 -44.13658 37100 ft 505 kts 40°
2026-05-07 15:56 -20.54013 -44.09011 37106 ft 505 kts 40°
2026-05-07 15:56 -20.48474 -44.04387 37096 ft 506 kts 39°
2026-05-07 15:57 -20.42893 -43.99826 37095 ft 506 kts 39°
2026-05-07 15:57 -20.37300 -43.95274 37092 ft 506 kts 39°
2026-05-07 15:58 -20.31706 -43.90712 37098 ft 506 kts 39°
2026-05-07 15:58 -20.26129 -43.86159 37120 ft 505 kts 39°
2026-05-07 15:59 -20.20538 -43.81600 37118 ft 506 kts 39°
2026-05-07 15:59 -20.14991 -43.77080 37118 ft 505 kts 39°
2026-05-07 16:00 -20.09409 -43.72538 37119 ft 505 kts 39°
2026-05-07 16:00 -20.03824 -43.67996 37115 ft 505 kts 39°
2026-05-07 16:01 -19.98252 -43.63467 37119 ft 503 kts 39°
2026-05-07 16:01 -19.92680 -43.58944 37108 ft 504 kts 39°
2026-05-07 16:02 -19.87107 -43.54422 37100 ft 504 kts 40°
2026-05-07 16:02 -19.81543 -43.49898 37095 ft 504 kts 40°
2026-05-07 16:03 -19.75973 -43.45368 37098 ft 504 kts 40°
2026-05-07 16:03 -19.70408 -43.40848 37096 ft 504 kts 40°
2026-05-07 16:04 -19.64831 -43.36324 37098 ft 504 kts 40°
2026-05-07 16:04 -19.59251 -43.31800 37093 ft 505 kts 40°
2026-05-07 16:05 -19.53669 -43.27275 37085 ft 506 kts 40°
2026-05-07 16:05 -19.48081 -43.22749 37088 ft 505 kts 40°
2026-05-07 16:06 -19.42529 -43.18256 37092 ft 505 kts 40°
2026-05-07 16:06 -19.36938 -43.13735 37084 ft 505 kts 40°
2026-05-07 16:07 -19.31349 -43.09220 37074 ft 505 kts 40°
2026-05-07 16:07 -19.25765 -43.04713 37076 ft 505 kts 40°
2026-05-07 16:08 -19.20185 -43.00213 37094 ft 504 kts 40°
2026-05-07 16:08 -19.14606 -42.95718 37093 ft 503 kts 40°
2026-05-07 16:09 -19.09036 -42.91233 37079 ft 503 kts 40°
2026-05-07 16:09 -19.03457 -42.86747 37081 ft 503 kts 40°
2026-05-07 16:10 -18.97900 -42.82278 37085 ft 502 kts 40°
2026-05-07 16:10 -18.92341 -42.77814 37082 ft 502 kts 40°
2026-05-07 16:11 -18.86811 -42.73389 37092 ft 502 kts 40°
2026-05-07 16:11 -18.81203 -42.68907 37083 ft 502 kts 40°
2026-05-07 16:12 -18.75674 -42.64490 37093 ft 502 kts 40°
2026-05-07 16:12 -18.70102 -42.60040 37086 ft 502 kts 40°
2026-05-07 16:13 -18.64530 -42.55597 37080 ft 502 kts 40°
2026-05-07 16:13 -18.58954 -42.51155 37088 ft 503 kts 40°
2026-05-07 16:14 -18.53374 -42.46711 37084 ft 503 kts 40°
2026-05-07 16:14 -18.47791 -42.42268 37074 ft 503 kts 40°
2026-05-07 16:15 -18.42197 -42.37819 37082 ft 504 kts 40°
2026-05-07 16:15 -18.36593 -42.33366 37064 ft 504 kts 40°
2026-05-07 16:16 -18.30995 -42.28922 37077 ft 504 kts 40°
2026-05-07 16:16 -18.25386 -42.24470 37068 ft 505 kts 40°
2026-05-07 16:17 -18.19777 -42.20017 37055 ft 505 kts 40°
2026-05-07 16:17 -18.14214 -42.15605 37076 ft 504 kts 40°
2026-05-07 16:18 -18.08615 -42.11166 37057 ft 503 kts 40°
2026-05-07 16:18 -18.03036 -42.06745 37060 ft 502 kts 40°
2026-05-07 16:19 -17.97455 -42.02328 37068 ft 501 kts 40°
2026-05-07 16:19 -17.91885 -41.97924 37085 ft 501 kts 40°
2026-05-07 16:20 -17.86358 -41.93556 37067 ft 500 kts 40°
2026-05-07 16:20 -17.80803 -41.89172 37085 ft 499 kts 40°
2026-05-07 16:21 -17.75262 -41.84800 37076 ft 498 kts 40°
2026-05-07 16:21 -17.69729 -41.80439 37093 ft 497 kts 40°
2026-05-07 16:22 -17.64196 -41.76080 37091 ft 497 kts 40°
2026-05-07 16:22 -17.58661 -41.71724 37084 ft 497 kts 40°
2026-05-07 16:23 -17.53129 -41.67373 37081 ft 497 kts 40°
2026-05-07 16:23 -17.47598 -41.63026 37084 ft 496 kts 40°
2026-05-07 16:24 -17.42116 -41.58720 37076 ft 495 kts 40°
2026-05-07 16:24 -17.36602 -41.54395 37094 ft 495 kts 40°
2026-05-07 16:25 -17.31088 -41.50079 37083 ft 495 kts 40°
2026-05-07 16:25 -17.25567 -41.45760 37091 ft 495 kts 40°
2026-05-07 16:26 -17.20052 -41.41447 37072 ft 495 kts 40°
2026-05-07 16:26 -17.14529 -41.37131 37090 ft 495 kts 40°
2026-05-07 16:27 -17.09011 -41.32821 37095 ft 496 kts 39°
2026-05-07 16:27 -17.03473 -41.28499 37077 ft 496 kts 39°
2026-05-07 16:28 -16.97980 -41.24215 37068 ft 496 kts 39°
2026-05-07 16:28 -16.92447 -41.19905 37077 ft 496 kts 39°
2026-05-07 16:29 -16.86922 -41.15603 37054 ft 495 kts 39°
2026-05-07 16:29 -16.81397 -41.11304 37065 ft 494 kts 39°
2026-05-07 16:30 -16.75881 -41.07016 37073 ft 494 kts 39°
2026-05-07 16:30 -16.70366 -41.02730 37074 ft 494 kts 39°
2026-05-07 16:31 -16.64848 -40.98447 37074 ft 495 kts 39°
2026-05-07 16:31 -16.59321 -40.94160 37073 ft 495 kts 39°
2026-05-07 16:32 -16.53783 -40.89867 37071 ft 495 kts 39°
2026-05-07 16:32 -16.48248 -40.85579 37060 ft 495 kts 39°
2026-05-07 16:33 -16.42752 -40.81326 37059 ft 495 kts 39°
2026-05-07 16:33 -16.37225 -40.77051 37053 ft 494 kts 39°
2026-05-07 16:34 -16.31708 -40.72786 37045 ft 493 kts 39°
2026-05-07 16:34 -16.26205 -40.68536 37060 ft 493 kts 39°
2026-05-07 16:35 -16.21586 -40.64970 37050 ft 492 kts 39°
2026-05-07 16:35 -16.15205 -40.60047 37037 ft 491 kts 39°
2026-05-07 16:36 -16.10650 -40.56536 37052 ft 490 kts 39°
2026-05-07 16:36 -16.05173 -40.52317 37050 ft 489 kts 38°
2026-05-07 16:37 -15.99699 -40.48102 37042 ft 489 kts 38°
2026-05-07 16:37 -15.94223 -40.43891 37057 ft 490 kts 38°
2026-05-07 16:38 -15.88736 -40.39697 37040 ft 490 kts 38°
2026-05-07 16:38 -15.83232 -40.35495 37042 ft 490 kts 38°
2026-05-07 16:39 -15.77737 -40.31299 37039 ft 490 kts 38°
2026-05-07 16:39 -15.72245 -40.27107 37042 ft 490 kts 38°
2026-05-07 16:40 -15.66759 -40.22922 37050 ft 490 kts 38°
2026-05-07 16:40 -15.61262 -40.18730 37029 ft 489 kts 37°
2026-05-07 16:41 -15.55818 -40.14582 37046 ft 489 kts 37°
2026-05-07 16:41 -15.50343 -40.10406 37038 ft 488 kts 38°
2026-05-07 16:42 -15.44874 -40.06235 37045 ft 487 kts 37°
2026-05-07 16:42 -15.39418 -40.02076 37047 ft 487 kts 37°
2026-05-07 16:43 -15.33959 -39.97918 37033 ft 487 kts 37°
2026-05-07 16:43 -15.28506 -39.93767 37036 ft 486 kts 37°
2026-05-07 16:44 -15.23056 -39.89622 37040 ft 485 kts 37°
2026-05-07 16:44 -15.17616 -39.85486 37035 ft 485 kts 37°
2026-05-07 16:44 -15.14894 -39.83418 36930 ft 486 kts 37°
2026-05-07 16:45 -15.12147 -39.81331 36419 ft 491 kts 37°
2026-05-07 16:45 -15.09400 -39.79245 35944 ft 488 kts 37°
2026-05-07 16:45 -15.06675 -39.77177 35539 ft 483 kts 37°
2026-05-07 16:45 -15.03975 -39.75127 35122 ft 479 kts 37°
2026-05-07 16:46 -15.01329 -39.73120 34721 ft 476 kts 37°
2026-05-07 16:46 -14.98661 -39.71115 34314 ft 472 kts 34°
2026-05-07 16:46 -14.95847 -39.69413 34072 ft 464 kts 27°
2026-05-07 16:46 -14.92978 -39.67935 33790 ft 457 kts 25°
2026-05-07 16:47 -14.90122 -39.66543 33457 ft 451 kts 25°
2026-05-07 16:47 -14.87290 -39.65175 33064 ft 447 kts 25°
2026-05-07 16:47 -14.84479 -39.63802 32671 ft 444 kts 25°
2026-05-07 16:47 -14.81710 -39.62425 32282 ft 441 kts 26°
2026-05-07 16:48 -14.78954 -39.61037 31886 ft 438 kts 26°
2026-05-07 16:48 -14.76226 -39.59651 31501 ft 435 kts 26°
2026-05-07 16:48 -14.73517 -39.58268 31110 ft 433 kts 26°
2026-05-07 16:48 -14.70831 -39.56894 30727 ft 431 kts 26°
2026-05-07 16:49 -14.68150 -39.55522 30350 ft 429 kts 26°
2026-05-07 16:49 -14.65512 -39.54172 29915 ft 427 kts 26°
2026-05-07 16:49 -14.62829 -39.52800 29479 ft 424 kts 26°
2026-05-07 16:49 -14.60187 -39.51450 29061 ft 421 kts 26°
2026-05-07 16:50 -14.57612 -39.50136 28655 ft 418 kts 26°
2026-05-07 16:50 -14.55016 -39.48810 28258 ft 415 kts 26°
2026-05-07 16:50 -14.52435 -39.47493 27867 ft 411 kts 26°
2026-05-07 16:50 -14.49877 -39.46188 27474 ft 409 kts 26°
2026-05-07 16:51 -14.47337 -39.44893 27097 ft 406 kts 26°
2026-05-07 16:51 -14.44814 -39.43606 26707 ft 403 kts 27°
2026-05-07 16:51 -14.42306 -39.42328 26332 ft 401 kts 26°
2026-05-07 16:51 -14.39812 -39.41057 25950 ft 398 kts 26°
2026-05-07 16:52 -14.37333 -39.39794 25566 ft 396 kts 27°
2026-05-07 16:52 -14.34867 -39.38538 25198 ft 394 kts 26°
2026-05-07 16:52 -14.32414 -39.37289 24803 ft 393 kts 27°
2026-05-07 16:52 -14.29963 -39.36040 24423 ft 392 kts 27°
2026-05-07 16:53 -14.27527 -39.34800 24051 ft 390 kts 27°
2026-05-07 16:53 -14.25091 -39.33561 23673 ft 389 kts 27°
2026-05-07 16:53 -14.22671 -39.32329 23250 ft 387 kts 27°
2026-05-07 16:53 -14.20288 -39.31118 22843 ft 385 kts 27°
2026-05-07 16:54 -14.17898 -39.29902 22453 ft 381 kts 26°
2026-05-07 16:54 -14.15527 -39.28697 22082 ft 378 kts 26°
2026-05-07 16:54 -14.13175 -39.27501 21703 ft 375 kts 27°
2026-05-07 16:54 -14.10839 -39.26314 21363 ft 372 kts 27°
2026-05-07 16:55 -14.08528 -39.25140 20992 ft 370 kts 27°
2026-05-07 16:55 -14.06227 -39.23971 20634 ft 367 kts 26°
2026-05-07 16:55 -14.03938 -39.22808 20282 ft 365 kts 26°
2026-05-07 16:55 -14.01665 -39.21654 19925 ft 363 kts 27°
2026-05-07 16:56 -13.99412 -39.20510 19572 ft 361 kts 27°
2026-05-07 16:56 -13.97163 -39.19369 19228 ft 359 kts 27°
2026-05-07 16:56 -13.92711 -39.17110 18528 ft 355 kts 27°
2026-05-07 16:57 -13.90500 -39.15989 18140 ft 353 kts 27°
2026-05-07 16:57 -13.88327 -39.14887 17763 ft 351 kts 27°
2026-05-07 16:57 -13.86143 -39.13779 17403 ft 349 kts 27°
2026-05-07 16:57 -13.83977 -39.12681 17050 ft 346 kts 27°
2026-05-07 16:58 -13.81827 -39.11592 16694 ft 343 kts 28°
2026-05-07 16:58 -13.79693 -39.10511 16357 ft 340 kts 28°
2026-05-07 16:58 -13.77575 -39.09437 16022 ft 338 kts 27°
2026-05-07 16:58 -13.75476 -39.08374 15692 ft 335 kts 28°
2026-05-07 16:59 -13.73389 -39.07317 15364 ft 333 kts 27°
2026-05-07 16:59 -13.71317 -39.06269 15030 ft 331 kts 27°
2026-05-07 16:59 -13.69309 -39.05139 14727 ft 326 kts 37°
2026-05-07 16:59 -13.67512 -39.03756 14513 ft 320 kts 40°
2026-05-07 17:00 -13.65798 -39.02306 14278 ft 317 kts 41°
2026-05-07 17:00 -13.64112 -39.00860 14026 ft 314 kts 42°
2026-05-07 17:00 -13.62454 -38.99451 13715 ft 312 kts 42°
2026-05-07 17:00 -13.60753 -38.98021 13365 ft 311 kts 41°
2026-05-07 17:01 -13.59094 -38.96640 13034 ft 310 kts 41°
2026-05-07 17:01 -13.57397 -38.95234 12704 ft 309 kts 40°
2026-05-07 17:01 -13.55722 -38.93852 12377 ft 307 kts 41°
2026-05-07 17:01 -13.54078 -38.92499 12055 ft 306 kts 40°
2026-05-07 17:02 -13.52419 -38.91135 11731 ft 305 kts 41°
2026-05-07 17:02 -13.50766 -38.89778 11412 ft 303 kts 41°
2026-05-07 17:02 -13.49122 -38.88427 11097 ft 302 kts 41°
2026-05-07 17:02 -13.47483 -38.87082 10782 ft 301 kts 41°
2026-05-07 17:03 -13.45849 -38.85742 10463 ft 300 kts 41°
2026-05-07 17:03 -13.44236 -38.84418 10311 ft 293 kts 41°
2026-05-07 17:03 -13.42662 -38.83129 10166 ft 286 kts 41°
2026-05-07 17:03 -13.41134 -38.81877 10022 ft 276 kts 41°
2026-05-07 17:04 -13.39638 -38.80651 9749 ft 275 kts 41°
2026-05-07 17:04 -13.38150 -38.79431 9463 ft 273 kts 41°
2026-05-07 17:04 -13.36669 -38.78215 9181 ft 272 kts 41°
2026-05-07 17:04 -13.35196 -38.77007 8899 ft 270 kts 41°
2026-05-07 17:05 -13.33731 -38.75804 8625 ft 269 kts 41°
2026-05-07 17:05 -13.32287 -38.74619 8327 ft 269 kts 41°
2026-05-07 17:05 -13.30829 -38.73422 8034 ft 269 kts 41°
2026-05-07 17:05 -13.29371 -38.72227 7776 ft 267 kts 41°
2026-05-07 17:06 -13.27922 -38.71038 7508 ft 266 kts 41°
2026-05-07 17:06 -13.26474 -38.69850 7244 ft 266 kts 41°
2026-05-07 17:06 -13.25028 -38.68664 6968 ft 266 kts 42°
2026-05-07 17:06 -13.23585 -38.67480 6694 ft 265 kts 41°
2026-05-07 17:07 -13.22143 -38.66298 6432 ft 266 kts 41°
2026-05-07 17:07 -13.20698 -38.65113 6119 ft 266 kts 42°
2026-05-07 17:07 -13.19254 -38.63929 5838 ft 265 kts 42°
2026-05-07 17:07 -13.17815 -38.62750 5565 ft 264 kts 41°
2026-05-07 17:08 -13.16378 -38.61573 5291 ft 264 kts 41°
2026-05-07 17:08 -13.14944 -38.60399 5043 ft 263 kts 41°
2026-05-07 17:08 -13.13526 -38.59244 4892 ft 258 kts 41°
2026-05-07 17:08 -13.12169 -38.58143 4787 ft 239 kts 41°
2026-05-07 17:09 -13.10928 -38.57137 4675 ft 221 kts 42°
2026-05-07 17:09 -13.09768 -38.56195 4531 ft 205 kts 42°
2026-05-07 17:09 -13.08681 -38.55312 4396 ft 196 kts 42°
2026-05-07 17:09 -13.07612 -38.54442 4318 ft 196 kts 43°
2026-05-07 17:10 -13.06560 -38.53586 4195 ft 191 kts 43°
2026-05-07 17:10 -13.05527 -38.52747 4094 ft 188 kts 43°
2026-05-07 17:10 -13.04492 -38.51937 3991 ft 189 kts 33°
2026-05-07 17:10 -13.03205 -38.51607 3845 ft 194 kts 10°
2026-05-07 17:11 -13.01850 -38.51429 3645 ft 199 kts 11°
2026-05-07 17:11 -13.00468 -38.51228 3413 ft 200 kts 11°
2026-05-07 17:11 -12.99088 -38.51024 3199 ft 199 kts 12°
2026-05-07 17:11 -12.97735 -38.50820 2972 ft 198 kts 12°
2026-05-07 17:12 -12.96362 -38.50614 2729 ft 194 kts 12°
2026-05-07 17:12 -12.95072 -38.50368 2537 ft 186 kts 27°
2026-05-07 17:12 -12.94283 -38.49493 2400 ft 159 kts 82°
2026-05-07 17:12 -12.94067 -38.48391 2322 ft 165 kts 81°
2026-05-07 17:13 -12.93827 -38.47231 2222 ft 166 kts 82°
2026-05-07 17:13 -12.93610 -38.46096 2084 ft 159 kts 81°
2026-05-07 17:13 -12.93395 -38.44988 1967 ft 162 kts 83°
2026-05-07 17:13 -12.93173 -38.43861 1925 ft 161 kts 83°
2026-05-07 17:14 -12.92956 -38.42745 1792 ft 158 kts 82°
2026-05-07 17:14 -12.92737 -38.41638 1554 ft 156 kts 87°
2026-05-07 17:14 -12.92508 -38.40562 1389 ft 152 kts 82°
2026-05-07 17:14 -12.92320 -38.39501 1161 ft 151 kts 84°
2026-05-07 17:15 -12.92167 -38.38442 979 ft 151 kts 79°
2026-05-07 17:15 -12.91881 -38.37385 800 ft 154 kts 81°
2026-05-07 17:15 -12.91673 -38.36328 611 ft 151 kts 81°
2026-05-07 17:15 -12.91473 -38.35298 403 ft 148 kts 72°
2026-05-07 17:16 -12.91247 -38.34308 215 ft 144 kts 83°
2026-05-07 17:16 -12.91075 -38.33333 27 ft 129 kts 74°
2026-05-07 17:16 -12.90952 -38.32732 33 ft 32 kts 77°
2026-05-07 17:16 -12.90943 -38.32693 34 ft 3 kts 77°
2026-05-07 17:17 -12.90934 -38.32649 35 ft 7 kts 77°
2026-05-07 17:17 -12.90928 -38.32602 36 ft 7 kts 94°
2026-05-07 17:17 -12.90951 -38.32564 37 ft 7 kts 153°
2026-05-07 17:17 -12.90994 -38.32551 35 ft 6 kts 166°
2026-05-07 17:18 -12.91002 -38.32549 36 ft 2 kts 166°
2026-05-07 17:18 -12.91049 -38.32549 35 ft 10 kts 204°
2026-05-07 17:18 -12.91087 -38.32604 34 ft 10 kts 256°
2026-05-07 17:18 -12.91101 -38.32672 33 ft 10 kts 259°
2026-05-07 17:19 -12.91113 -38.32739 32 ft 9 kts 258°
2026-05-07 17:19 -12.91126 -38.32803 31 ft 9 kts 258°
2026-05-07 17:19 -12.91139 -38.32865 30 ft 9 kts 258°
2026-05-07 17:19 -12.91151 -38.32926 29 ft 9 kts 258°
2026-05-07 17:20 -12.91162 -38.32984 28 ft 8 kts 258°
2026-05-07 17:20 -12.91174 -38.33041 27 ft 8 kts 257°
2026-05-07 17:20 -12.91186 -38.33095 27 ft 8 kts 255°
2026-05-07 17:20 -12.91197 -38.33147 29 ft 7 kts 257°
2026-05-07 17:21 -12.91232 -38.33177 28 ft 7 kts 195°
2026-05-07 17:21 -12.91278 -38.33191 29 ft 7 kts 200°
2026-05-07 17:21 -12.91319 -38.33211 28 ft 4 kts 209°
2026-05-07 17:21 -12.91340 -38.33222 25 ft 3 kts 205°
2026-05-07 17:22 -12.91347 -38.33225 25 ft 0 kts 205°